SCP
0 0 0 0 0 0 0 0 0 0 0 0 0 0 0 0 0 0 0 0 0 1 1 1 1 1 1 1 1 1 1 1 0 0 0 0 0 0 0 0 0 0 0 0
0 0 0 0 0 0 0 0 0 0 0 0 0 0 0 0 0 0 0 0 1 1 1 1 1 1 1 1 1 1 1 1 1 0 0 0 0 0 0 0 0 0 0 0
0 0 0 0 0 0 0 0 0 0 0 0 0 0 0 0 0 0 0 1 1 1 1 1 1 1 1 1 1 1 1 1 1 0 0 0 0 0 0 0 0 0 0 0
0 0 0 0 0 0 0 0 0 0 0 0 0 0 0 0 0 0 0 1 1 1 1 1 1 1 1 1 1 1 1 1 1 1 1 0 0 0 0 0 0 0 0 0
0 0 0 0 0 0 0 0 0 0 0 0 0 0 0 0 0 0 0 1 1 1 1 1 1 1 1 1 1 1 1 1 1 1 1 1 1 1 1 0 0 0 1 0
0 0 0 0 0 0 0 0 0 0 0 0 0 0 0 0 0 0 0 1 1 1 1 2 2 2 1 1 1 1 1 1 1 1 1 1 1 1 1 1 1 1 1 1
0 0 0 0 0 0 0 0 0 0 0 0 0 0 0 0 0 0 0 1 1 1 1 2 2 2 2 1 1 1 2 2 1 1 1 1 1 1 1 1 1 1 1 1
0 0 0 0 0 0 0 0 0 0 0 0 0 0 0 0 0 0 0 0 1 1 1 2 2 2 2 2 2 2 2 2 2 1 1 1 1 1 1 1 1 1 1 1
0 0 0 0 0 0 0 0 0 0 0 0 0 0 0 0 0 0 0 0 1 1 1 1 2 2 2 2 2 2 2 2 2 1 1 1 1 1 1 1 1 1 1 1
0 0 0 0 0 0 0 0 0 0 0 0 0 0 0 0 0 0 0 1 1 1 1 1 1 2 2 2 2 2 3 2 2 1 1 1 1 1 1 1 1 1 1 1
0 0 0 0 0 0 0 0 0 0 0 0 0 0 0 0 0 0 1 1 1 1 1 1 1 1 2 2 2 2 2 2 2 2 1 1 1 1 1 1 1 1 1 1
0 0 0 0 0 0 0 0 0 0 0 0 0 0 0 0 1 1 1 1 1 1 1 1 1 1 2 2 2 2 2 2 2 2 2 2 1 1 1 1 1 1 1 1
0 0 0 0 0 0 0 0 0 0 0 0 0 0 0 1 1 1 1 1 1 1 1 1 2 2 2 2 2 2 2 2 2 2 2 2 2 2 1 1 1 1 1 1
0 0 0 0 0 0 0 0 0 0 0 0 0 0 0 1 1 1 1 1 1 2 2 2 2 2 2 2 2 2 2 2 2 2 2 2 2 2 2 1 1 1 1 1
0 0 0 0 0 0 0 0 0 0 0 0 0 0 0 1 1 1 1 1 1 1 1 2 2 2 2 2 3 3 3 3 3 3 2 2 2 2 2 2 2 2 1 1
0 0 0 0 0 0 0 0 0 0 0 0 0 0 1 1 1 1 1 1 1 1 1 1 2 2 2 2 2 3 3 3 3 3 2 2 2 2 2 2 2 2 2 1
0 0 0 0 0 0 0 0 0 0 0 0 0 0 1 1 1 1 1 1 1 1 1 1 2 2 2 2 2 3 3 3 3 3 2 2 2 2 2 2 2 2 2 2
0 0 0 0 0 0 0 0 0 0 0 0 0 1 1 1 1 1 1 1 1 1 1 1 2 2 2 2 2 3 3 3 3 2 2 2 2 2 2 2 2 2 2 2
0 0 0 0 0 0 0 0 0 0 0 0 1 1 1 1 1 1 1 1 1 1 2 2 2 2 2 2 2 2 2 2 2 2 2 2 2 2 2 2 2 2 2 2
0 0 0 0 0 0 0 0 0 0 0 0 1 1 1 1 1 1 1 2 2 2 2 2 2 2 2 2 2 2 2 2 2 2 2 2 2 2 2 1 1 2 2 2
0 0 0 0 0 0 0 0 0 0 1 1 1 1 1 1 1 2 2 2 3 3 2 2 2 2 3 3 3 3 3 2 2 2 2 2 2 2 2 1 1 1 1 1
0 0 0 0 0 0 0 0 0 1 1 1 1 1 1 2 2 2 2 2 2 2 2 2 2 2 3 3 3 3 3 3 2 2 2 2 2 1 1 1 1 1 1 1
0 0 0 0 0 0 0 1 1 1 1 1 1 1 2 2 2 2 2 2 2 2 2 2 2 2 2 2 2 2 2 2 2 2 2 2 1 1 1 1 1 1 1 1
0 0 0 0 0 1 1 1 1 1 1 1 1 1 1 1 2 2 2 2 2 2 2 2 2 2 2 2 2 2 2 2 2 2 2 1 1 1 1 1 0 0 0 0
0 0 0 1 1 1 1 1 1 1 1 1 1 1 1 1 1 2 2 2 2 2 2 2 2 2 2 2 2 2 2 2 2 1 1 1 1 0 0 0 0 0 0 0
0 0 0 1 1 1 1 1 1 1 1 1 1 1 1 1 1 2 2 2 2 2 2 2 2 2 2 2 2 2 2 1 1 1 1 0 0 0 0 0 0 0 0 0
Wind_Speed
14 14 14 14 13 11 11 9 7 5 4 5 7 10 11 12 12 13 13 12 12 13 13 12 12 12 12 10 9 8 7 6 4 3 4 3 3 3 3 3 5 5 4 4
15 17 16 14 12 11 11 11 10 6 3 4 6 7 10 12 13 13 14 14 14 14 14 13 12 11 12 11 10 8 7 7 6 4 3 3 3 3 3 2 4 5 5 4
19 14 13 14 14 13 13 12 11 7 5 7 8 8 9 11 11 11 12 13 14 15 15 14 13 11 12 12 11 9 8 8 7 6 4 3 2 2 2 3 3 4 4 4
18 17 15 15 15 14 12 11 9 8 8 8 9 6 8 10 11 11 11 11 13 13 15 15 14 13 13 13 12 9 8 7 7 6 6 6 5 4 4 3 3 4 4 4
16 16 17 17 15 13 12 9 9 9 9 11 11 9 7 9 10 11 12 11 11 13 15 16 15 14 13 13 13 11 9 7 7 6 5 5 5 4 3 4 4 4 4 4
17 15 15 15 13 12 11 11 10 10 10 12 13 13 8 7 10 10 12 13 12 13 15 15 15 13 11 12 12 12 10 8 7 7 5 5 4 3 3 4 4 4 4 4
17 17 15 14 15 13 12 11 8 10 10 10 11 11 6 5 7 8 9 11 13 12 13 13 14 14 12 12 12 12 11 9 8 7 6 5 4 3 3 3 4 4 3 3
15 15 15 14 14 12 11 13 10 10 9 9 10 9 5 7 7 8 7 9 10 12 12 13 13 12 12 12 11 11 12 10 9 8 6 5 4 4 3 3 3 3 2 3
12 11 11 13 13 14 14 13 13 12 14 13 8 6 4 7 8 9 8 7 9 10 10 12 13 12 12 12 11 10 11 10 9 8 6 5 4 4 3 3 3 2 2 2
13 12 11 11 12 15 15 11 9 10 9 11 11 9 5 6 8 8 7 6 7 8 9 10 11 11 11 10 9 9 10 9 8 8 7 6 5 4 3 2 3 2 1 1
13 13 12 11 13 14 13 13 11 9 10 10 10 5 2 5 5 7 8 7 6 6 6 9 9 10 9 9 10 9 9 9 9 8 7 6 6 6 5 3 3 2 2 2
10 11 12 14 13 13 14 15 14 11 10 10 10 5 1 3 5 6 7 8 6 6 4 5 8 8 8 8 8 8 8 8 8 7 7 6 6 6 6 4 4 3 2 2
6 8 10 12 13 13 13 14 14 13 11 10 11 6 2 2 4 4 6 8 8 6 5 4 7 7 7 7 7 7 7 7 7 7 7 7 6 6 5 5 4 4 3 3
6 10 12 15 12 10 13 14 15 14 12 11 11 8 6 4 5 5 6 6 7 6 6 5 5 6 5 5 5 5 7 6 6 6 6 6 6 6 5 5 4 4 4 3
8 13 15 17 18 16 15 15 15 15 15 14 10 8 7 6 6 6 6 6 6 5 5 5 5 5 4 4 4 5 5 5 6 5 5 5 5 5 5 5 5 4 4 4
9 11 14 17 18 18 18 18 17 15 14 14 13 10 7 4 4 4 5 6 5 5 5 5 5 5 4 5 4 5 5 5 5 6 5 5 5 4 4 5 5 4 4 3
8 9 12 15 16 17 20 19 18 15 14 14 13 7 4 4 3 4 5 4 4 4 4 4 3 3 4 4 4 5 5 5 5 5 4 4 4 4 4 5 4 4 4 4
10 9 8 12 14 19 15 13 13 13 11 8 5 5 5 3 4 4 4 4 4 4 4 4 3 2 3 4 4 4 5 4 4 4 4 3 4 4 3 3 3 3 3 3
11 9 9 11 15 17 15 12 11 11 9 6 5 5 4 4 4 4 4 4 4 4 4 3 1 2 2 3 4 4 5 5 5 5 4 4 4 3 3 4 3 3 3 3
13 10 10 12 14 15 10 7 7 9 9 3 3 2 3 4 5 4 5 5 5 5 3 2 2 2 3 4 4 4 4 4 4 3 3 3 3 3 3 3 3 2 2 3
12 12 14 15 15 11 6 6 6 9 4 1 1 2 2 1 1 5 6 5 5 5 4 3 2 2 3 3 3 3 3 3 2 2 2 3 3 3 3 2 2 2 2 2
10 11 13 13 14 11 3 5 4 3 4 4 4 4 4 5 6 6 5 5 5 4 4 3 3 3 3 3 3 3 2 2 2 2 2 2 2 1 2 2 1 2 2 2
9 8 7 7 5 1 3 3 2 2 3 3 3 3 3 3 4 4 3 4 4 4 3 3 4 3 3 3 3 3 2 2 2 2 2 2 2 1 2 2 1 1 2 2
6 6 6 5 3 2 2 2 2 2 3 3 2 2 2 2 2 3 3 3 3 3 4 3 3 3 3 3 3 2 2 2 2 2 2 2 2 2 2 1 1 1 1 1
8 6 5 7 5 4 3 3 3 3 3 2 2 1 2 1 2 2 2 3 3 3 3 3 3 3 3 3 3 3 3 2 2 2 2 2 2 2 2 1 0 1 1 1
8 7 7 7 5 4 4 4 4 5 5 3 1 2 1 0 1 1 2 2 3 4 3 3 3 3 3 3 3 3 3 3 2 2 2 1 1 2 2 2 1 3 2 3
Wind_Direction
226 233 240 243 243 249 265 275 267 244 203 222 202 188 177 174 178 176 170 169 174 172 168 162 162 159 153 151 154 159 160 156 159 161 171 176 173 175 172 166 155 166 181 178
235 234 245 257 262 258 258 262 263 256 249 261 247 209 184 185 187 180 175 174 181 174 168 164 166 164 158 157 161 163 166 164 173 172 174 176 173 180 176 165 154 174 184 178
237 242 239 247 252 253 254 250 260 272 266 251 249 228 202 197 189 183 180 176 178 176 171 167 170 171 165 163 167 172 168 168 180 174 179 185 167 188 168 163 160 182 182 182
241 247 249 246 249 253 256 253 258 264 262 262 250 242 213 201 186 180 180 180 182 178 171 171 173 175 174 168 168 162 163 167 176 181 190 187 182 187 186 172 167 182 184 186
243 244 248 247 249 254 267 269 265 264 267 271 270 260 229 198 191 188 183 185 184 178 175 173 175 176 177 172 170 166 163 168 173 186 194 198 192 186 180 172 169 181 182 184
254 251 251 253 255 252 260 269 263 259 258 254 254 259 247 210 196 189 183 179 185 181 177 171 172 170 175 172 169 167 165 170 174 183 190 198 200 186 180 179 172 188 185 186
247 247 246 249 250 243 239 249 253 243 239 247 245 249 242 202 180 180 181 176 179 176 170 166 169 170 174 174 171 168 165 173 177 183 189 190 197 188 193 192 185 200 188 178
239 238 232 235 243 248 239 242 248 261 264 262 246 248 226 173 160 165 171 165 166 167 166 166 168 168 171 173 171 169 167 172 178 184 188 187 190 198 198 210 213 198 201 177
259 249 232 229 236 242 246 246 250 257 265 273 267 258 237 156 161 164 170 163 160 164 167 166 166 167 169 173 171 171 164 169 176 181 177 179 183 198 194 188 219 217 201 195
264 275 257 234 230 231 243 252 261 253 259 268 267 243 224 172 170 164 156 152 151 162 166 157 156 163 169 169 165 161 156 165 170 175 181 187 190 188 187 202 188 218 230 217
259 265 262 244 233 233 227 232 247 265 265 265 270 268 219 167 168 163 154 149 145 145 151 155 156 160 160 167 165 165 162 165 172 179 182 183 177 180 183 198 188 196 211 209
250 260 264 256 242 240 243 239 233 240 251 262 274 266 227 137 148 153 141 132 125 115 120 147 147 150 158 163 168 167 170 173 176 176 175 178 173 175 180 186 186 192 195 204
280 260 259 256 245 228 237 238 243 248 251 250 258 258 218 124 111 126 134 128 120 116 115 122 137 144 152 160 165 169 172 175 177 174 175 176 178 179 182 183 180 186 191 202
267 257 255 258 265 258 246 239 241 250 254 252 251 241 217 195 163 152 125 122 119 116 113 119 123 127 130 141 147 159 169 169 171 175 179 180 185 185 182 181 178 181 184 193
246 254 257 263 269 269 267 263 249 243 252 263 262 243 234 209 177 148 143 135 130 131 131 123 126 124 130 137 146 153 162 163 170 173 181 182 183 179 179 179 179 183 189 197
241 257 267 263 262 267 267 264 260 250 253 259 259 252 245 182 143 139 147 145 141 139 136 130 129 139 146 151 158 157 163 166 169 176 183 176 179 183 185 185 182 184 190 198
259 254 264 267 266 267 259 257 261 255 252 255 258 247 214 184 158 152 149 150 144 147 145 138 134 146 153 158 163 165 161 163 167 171 172 169 175 185 190 195 190 192 194 200
253 260 263 266 269 256 261 263 264 261 259 254 249 233 225 197 140 126 139 148 154 149 141 129 129 142 163 163 160 157 160 161 164 164 165 167 176 187 187 193 195 198 197 202
243 240 252 258 257 257 261 265 267 260 257 262 230 211 206 168 147 144 137 128 130 113 105 112 132 156 158 153 151 159 173 169 171 174 175 180 183 185 190 195 199 201 202 209
225 221 235 249 255 258 264 272 292 281 253 263 242 194 190 204 205 167 133 127 113 104 99 98 125 138 136 137 150 168 173 168 172 173 175 181 187 191 196 194 193 200 208 220
223 223 228 242 251 257 285 301 286 260 260 348 200 182 189 247 69 102 106 105 100 101 99 92 100 104 107 120 134 149 148 159 159 155 163 168 169 184 183 175 180 193 208 215
238 233 232 239 247 251 311 281 285 333 22 50 55 69 82 81 89 91 90 96 103 102 96 94 93 89 97 110 121 125 130 128 121 123 132 134 143 181 163 148 175 199 204 200
250 254 258 247 247 324 12 18 10 349 33 52 64 79 88 99 104 100 96 97 101 105 101 100 95 89 95 101 115 130 108 93 98 109 122 137 152 152 152 161 172 197 203 213
267 279 282 281 254 287 335 314 310 351 11 19 31 60 72 94 100 112 113 118 120 104 108 104 105 106 104 97 101 103 101 110 117 136 149 159 166 166 145 150 179 179 205 191
294 299 287 274 271 286 290 318 335 334 333 342 352 13 54 83 102 104 113 124 122 103 94 94 104 107 104 95 92 97 101 104 122 146 159 172 171 146 126 120 70 115 68 65
276 273 263 267 287 294 300 319 327 327 320 321 346 343 354 41 130 122 106 106 103 97 95 98 109 115 105 93 82 81 87 96 116 139 147 161 164 140 139 130 82 59 107 115